This is the latest recevied weather packets stored in our database for station/object RN1M-13. If no packets are shown the sender has not sent any weather packets the latest 10 day(s).
| Time | Temp. | Humidity | Pressure | Rain* | Wind** | Luminosity | Snow |
|---|---|---|---|---|---|---|---|
| 1778202715 | 7.78° C | 100% | 1017 hPa | - | - | - | - |
| 1778201815 | 7.22° C | 100% | 1016.9 hPa | - | - | - | - |
| 1778200915 | 6.67° C | 100% | 1017 hPa | - | - | - | - |
| 1778200015 | 6.67° C | 100% | 1017.1 hPa | - | - | - | - |
| 1778199114 | 7.22° C | 100% | 1017 hPa | - | - | - | - |
| 1778198214 | 6.67° C | 100% | 1017 hPa | - | - | - | - |
| 1778197314 | 7.22° C | 100% | 1016.8 hPa | - | - | - | - |
| 1778196414 | 7.22° C | 100% | 1016.8 hPa | - | - | - | - |
| 1778195514 | 6.67° C | 100% | 1016.7 hPa | - | - | - | - |
| 1778194616 | 7.78° C | 100% | 1016.5 hPa | - | - | - | - |
| 1778193721 | 7.78° C | 100% | 1016.6 hPa | - | - | - | - |
| 1778192821 | 7.78° C | 100% | 1016.5 hPa | - | - | - | - |
| 1778191921 | 7.78° C | 100% | 1016.4 hPa | - | - | - | - |
| 1778191021 | 7.78° C | 100% | 1016.4 hPa | - | - | - | - |
| 1778190121 | 7.78° C | 100% | 1016.3 hPa | - | - | - | - |
| 1778189221 | 8.33° C | 100% | 1016.2 hPa | - | - | - | - |
| 1778188321 | 8.33° C | 100% | 1016 hPa | - | - | - | - |
| 1778187420 | 8.33° C | 85% | 1015.9 hPa | - | - | - | - |
| 1778186520 | 8.89° C | 58% | 1015.8 hPa | - | - | - | - |
| 1778185620 | 8.89° C | 62% | 1015.7 hPa | - | - | - | - |
| 1778184720 | 8.89° C | 61% | 1015.4 hPa | - | - | - | - |
| 1778183822 | 9.44° C | 59% | 1015.1 hPa | - | - | - | - |
| 1778182928 | 9.44° C | 56% | 1015 hPa | - | - | - | - |
| 1778182028 | 9.44° C | 55% | 1015 hPa | - | - | - | - |
| 1778181128 | 9.44° C | 56% | 1014.8 hPa | - | - | - | - |
* Rain since midnight (hover to see other rain measurements)
** Current wind speed in m/s (hover to see current wind gust speed)